Wind_Speed
7 9 9 12 16 15 16 20 19 15 12 12 13 11 17 13 7 5 6 7 7 12 19 20 20 19 18 18 22 28 31 29 26 26 26 24 23 20 20 23 20 18 21 19 18 20 21 20 20 20 17 12 11 10 9 8 8 8 9 9 9 11 12 12 12 13 13 13 13 14 14 13 13 13 13 13 13 12 12 11 12 12 12 12 11 12
7 10 11 10 14 16 15 17 17 15 14 14 12 6 15 12 7 5 5 7 8 11 16 19 21 22 21 19 22 28 33 31 29 29 26 24 24 20 21 24 21 18 21 20 19 21 22 20 19 21 18 13 11 10 9 9 8 9 9 9 9 11 12 13 13 13 13 12 12 13 13 13 13 13 12 12 12 12 13 12 12 13 12 12 11 11
11 11 12 10 11 15 16 17 17 18 17 15 14 7 12 15 11 9 6 6 7 9 12 14 19 22 22 20 21 29 34 33 31 31 28 27 26 21 21 25 22 19 23 22 20 21 22 20 17 20 18 13 11 11 10 10 10 10 10 10 10 11 12 13 13 13 13 12 12 12 12 12 13 13 12 12 12 13 13 13 13 13 13 12 11 11
14 9 8 11 12 13 16 17 16 18 19 15 15 11 9 16 14 11 10 8 6 8 9 10 14 19 21 21 22 26 29 31 31 31 31 30 29 23 21 25 23 21 24 24 21 22 23 21 17 17 16 13 11 12 11 11 11 10 10 11 11 11 12 13 13 13 13 12 12 13 12 12 12 13 13 12 12 13 14 14 14 14 13 12 11 11
16 11 7 9 15 16 16 17 16 18 18 14 15 12 5 12 14 9 11 11 9 7 9 10 12 18 21 20 22 25 26 28 29 30 32 31 31 27 24 25 24 21 25 25 23 24 24 22 18 16 16 14 11 12 13 11 11 10 10 11 11 12 12 12 12 11 12 12 12 12 12 12 12 12 12 12 12 13 13 13 13 13 13 12 11 11
14 12 9 9 14 15 16 18 19 17 16 14 15 14 9 10 12 11 11 14 14 11 11 12 9 12 19 19 20 26 28 28 28 30 32 31 32 31 27 24 24 22 25 26 24 25 25 22 19 17 17 15 12 13 13 12 11 11 11 11 12 13 12 12 12 11 12 12 12 11 10 11 11 11 12 12 12 13 12 12 12 12 11 11 10 10
13 12 14 13 11 14 16 18 18 15 15 17 16 13 12 12 11 13 14 13 13 10 10 13 9 6 16 19 18 22 28 30 29 29 31 32 33 33 30 26 23 23 26 28 26 26 25 23 19 18 17 15 12 13 13 13 13 12 12 12 12 13 12 12 11 11 13 13 13 12 12 12 11 11 11 11 12 13 13 12 11 11 10 9 9 8
11 14 17 14 11 14 16 16 17 15 17 21 17 8 11 13 7 9 13 10 7 8 11 15 12 7 12 16 14 17 25 31 31 31 31 33 34 34 33 29 24 24 27 29 28 27 26 23 19 18 18 15 12 13 14 13 14 13 13 12 13 13 13 12 12 12 13 13 13 13 14 14 12 12 12 12 12 13 12 12 12 11 10 9 8 7
7 12 15 12 10 11 14 16 17 15 17 21 16 7 5 8 9 11 14 12 11 14 15 19 16 7 8 12 13 17 24 31 34 35 34 33 33 34 35 33 27 25 27 27 26 26 27 24 19 17 18 15 13 14 15 13 13 13 13 13 13 13 13 12 12 12 12 13 14 14 13 13 13 12 12 12 12 12 12 12 12 12 11 10 9 8
10 9 11 11 13 13 11 12 15 15 15 16 14 8 7 7 11 13 12 13 17 16 14 22 23 10 6 13 17 19 22 28 35 38 36 33 32 32 33 34 31 28 27 26 25 26 26 23 19 17 17 16 15 15 15 14 14 14 14 14 13 13 13 13 12 13 13 13 14 15 13 12 12 12 12 12 11 11 12 12 12 12 11 11 10 9
11 7 6 8 16 17 10 6 12 17 15 12 11 11 12 12 8 4 6 5 7 8 7 17 26 15 6 14 20 17 13 16 28 38 37 34 34 31 31 34 32 29 28 28 26 25 26 24 21 18 17 17 17 16 16 15 16 16 15 14 13 13 13 13 13 13 13 13 14 14 13 12 12 12 11 11 11 11 11 11 11 11 11 11 10 9
11 9 7 7 14 16 10 5 9 15 13 12 13 13 11 12 9 6 7 5 3 3 5 11 25 20 8 12 15 11 7 7 17 32 37 36 37 33 31 32 30 29 30 30 27 25 26 26 24 21 19 19 18 17 17 16 16 16 15 14 14 13 13 14 13 13 14 14 14 14 14 13 12 12 11 12 12 11 10 10 10 11 11 10 9 9
10 12 8 8 10 12 11 9 9 14 15 15 15 14 7 5 4 4 5 2 2 7 9 11 20 19 8 4 5 6 9 7 9 22 32 35 36 34 32 32 30 30 31 32 29 26 27 27 24 22 19 21 21 18 18 17 15 16 15 14 14 13 13 14 14 14 14 14 14 14 14 13 13 12 12 12 12 11 11 10 10 10 9 9 9 8
7 10 11 11 11 11 13 15 15 15 18 20 18 14 6 2 1 2 2 3 6 12 14 16 14 12 5 3 4 6 8 7 8 17 27 32 34 33 32 32 32 32 32 32 29 26 28 27 25 23 20 22 23 20 20 18 15 16 16 15 14 14 14 14 14 14 14 14 14 14 14 14 13 12 13 13 12 12 12 11 11 10 9 8 8 7
8 7 11 12 12 10 13 23 21 13 13 20 20 13 10 9 5 2 2 3 5 9 14 16 11 7 5 4 5 6 7 9 11 16 23 28 32 33 33 33 34 34 33 33 29 27 29 28 26 25 22 22 22 21 22 20 17 17 17 15 15 14 14 14 14 14 14 15 14 14 14 13 13 12 13 13 13 13 12 12 12 11 10 9 8 8
12 11 10 10 15 14 13 21 21 13 10 15 19 16 14 17 14 11 12 13 10 7 9 3 8 7 8 6 4 6 10 11 13 17 22 25 28 33 37 37 36 35 35 33 30 27 28 28 26 26 24 25 24 22 23 21 17 17 16 16 15 14 14 14 14 14 14 15 14 14 14 13 12 12 12 13 13 13 12 13 12 11 10 9 8 8
11 10 5 4 13 16 12 14 18 15 9 8 17 21 17 19 19 17 14 14 12 5 3 6 11 10 10 8 5 8 9 10 12 16 21 23 25 30 36 39 37 36 35 33 30 28 29 28 26 26 26 28 27 25 24 20 17 16 16 17 16 15 15 15 15 15 15 15 15 15 15 14 13 12 12 12 12 12 12 12 12 11 10 10 8 8
9 7 1 5 7 14 11 11 15 17 13 9 9 16 15 17 20 17 9 8 8 3 4 12 19 17 12 9 11 12 11 11 11 13 17 20 24 26 30 35 37 37 34 32 31 31 30 28 27 26 26 27 27 26 25 21 19 17 16 17 17 15 15 15 15 15 15 15 15 15 15 15 14 13 13 13 12 13 12 11 11 11 10 9 9 8
9 11 11 11 7 5 9 9 9 12 16 16 9 8 10 10 15 16 7 4 4 2 2 6 15 13 7 9 16 17 17 16 12 12 15 17 21 22 25 29 33 36 36 35 35 33 31 30 28 28 27 26 26 25 25 23 21 18 17 18 17 16 15 15 15 16 15 15 15 15 16 16 15 15 14 14 13 13 12 11 11 10 10 10 9 8
8 12 17 16 13 10 3 10 6 7 10 15 13 7 9 9 12 17 15 10 6 2 1 3 4 3 3 7 16 19 19 17 13 14 15 15 16 17 21 26 29 34 37 37 36 35 33 32 31 30 29 27 26 26 26 25 23 21 18 18 18 17 17 17 17 16 16 16 15 16 16 17 17 17 16 16 15 14 13 12 11 10 10 10 9 8
6 10 15 16 11 7 6 4 7 9 9 12 13 12 11 11 11 13 16 18 12 5 2 3 1 1 3 8 16 19 17 15 13 12 13 13 13 14 18 22 26 31 35 36 36 35 34 33 32 33 32 29 27 27 27 26 24 22 19 19 19 18 18 18 17 17 17 17 17 16 17 18 19 18 18 17 16 15 14 13 12 11 11 10 9 9
7 9 13 14 11 13 17 12 5 7 11 13 11 15 16 14 12 9 9 15 17 12 8 3 4 4 7 10 16 19 17 15 13 10 10 11 12 15 17 18 22 26 32 35 36 37 37 36 36 35 34 31 29 28 28 27 26 23 20 20 20 19 18 18 17 17 17 17 17 17 17 18 19 20 19 18 17 16 15 14 13 12 12 11 10 10
10 9 9 10 12 18 18 10 6 8 12 12 11 15 19 17 16 9 6 10 15 18 18 9 6 6 9 9 13 18 18 16 14 12 12 12 13 16 17 17 21 23 28 33 37 40 41 40 40 39 36 34 31 28 28 28 27 24 20 20 21 20 19 19 18 17 17 18 18 18 18 18 19 20 20 20 18 18 17 15 14 13 13 12 11 12
7 7 9 9 12 17 15 12 9 8 9 11 14 13 18 19 17 11 9 10 8 7 11 7 4 5 9 7 9 14 15 14 15 14 14 14 17 20 19 19 21 21 24 27 31 38 42 40 40 40 37 34 32 29 29 29 27 23 20 20 21 21 20 19 18 17 18 19 19 18 18 18 18 20 20 21 20 19 18 17 16 15 14 13 13 13
5 6 10 9 9 12 11 10 9 7 6 7 13 12 11 12 14 15 16 14 8 9 7 5 4 5 8 8 9 12 13 15 16 14 15 16 19 22 22 19 18 18 20 22 25 31 37 40 42 41 38 35 33 31 30 29 27 24 21 21 21 20 20 20 19 18 19 20 20 19 19 18 19 19 19 20 20 20 20 19 18 17 15 15 15 13
6 6 7 6 5 5 5 8 11 13 11 9 14 18 9 7 16 14 7 4 9 14 15 11 8 8 7 6 8 9 11 15 15 13 15 16 19 22 20 17 17 18 20 21 23 25 29 36 42 42 40 38 36 33 30 28 27 25 24 22 22 21 21 20 19 19 20 20 20 19 19 19 18 18 18 19 19 20 20 20 19 18 17 16 16 15
7 4 3 6 7 5 8 13 13 14 15 17 20 21 14 11 17 16 12 10 10 13 16 15 11 9 7 4 5 7 8 11 11 11 13 15 17 19 17 16 18 20 21 19 19 20 22 28 37 42 43 40 36 33 31 30 28 27 26 24 23 23 22 21 20 20 20 20 21 20 19 19 19 18 18 18 18 19 19 19 20 20 18 17 16 16
5 4 4 7 10 10 11 13 12 12 14 16 17 16 15 12 12 16 19 15 12 13 13 12 9 8 6 3 2 4 7 7 7 7 10 13 14 14 15 17 19 20 20 19 17 18 19 23 32 41 43 41 38 36 34 33 31 29 28 27 26 25 24 22 22 22 21 21 21 20 19 19 19 19 19 18 18 19 19 19 19 20 20 18 17 17
4 7 9 9 14 14 10 9 13 16 14 12 13 15 16 13 11 14 15 14 16 18 13 10 12 15 9 2 1 3 7 7 6 8 10 10 11 13 15 16 18 19 19 16 15 16 17 20 29 39 43 43 41 38 36 35 33 30 29 28 27 26 25 24 23 23 23 22 23 23 22 22 22 21 21 20 19 19 19 19 20 20 20 19 18 18
7 8 8 9 14 15 10 9 11 14 14 12 12 13 16 16 14 12 9 9 10 13 13 9 12 17 12 4 2 3 6 6 8 10 10 10 11 14 16 17 18 18 17 15 15 16 17 19 25 35 43 44 42 39 38 37 34 31 29 28 26 25 25 25 25 25 24 24 26 27 26 26 26 25 23 22 22 21 21 21 21 21 21 20 18 18
7 6 5 8 12 12 10 11 8 8 9 10 9 10 14 16 14 11 11 10 8 8 9 8 9 12 9 4 5 3 5 6 7 8 9 10 11 11 13 16 18 17 17 16 16 16 18 19 22 28 36 41 39 37 36 35 34 32 31 29 27 26 27 27 27 27 26 26 27 28 27 26 25 24 23 23 23 22 22 22 21 22 22 21 20 20
5 5 6 7 10 10 9 10 8 8 7 4 7 10 9 14 14 11 13 14 12 11 8 5 7 7 5 1 4 4 3 2 4 5 6 8 8 7 8 13 16 17 18 18 16 16 17 18 18 22 27 33 34 33 32 31 31 32 31 28 27 27 28 28 29 29 30 31 31 30 29 27 24 23 23 23 24 24 24 23 22 23 23 23 23 23
3 6 6 4 8 10 9 8 8 7 6 3 3 6 7 9 12 7 8 12 12 11 9 9 11 8 0 4 2 1 1 3 4 5 7 8 8 7 8 12 16 15 16 17 17 17 15 13 16 21 25 30 32 32 31 30 32 33 30 28 27 28 28 30 30 30 31 33 34 33 30 27 24 24 26 26 26 26 25 25 24 24 25 25 25 25
2 5 6 4 6 9 9 9 8 2 3 6 7 4 6 7 8 5 6 10 10 10 11 12 11 8 5 5 5 5 5 6 6 5 9 11 11 8 7 11 15 14 13 14 15 14 11 11 16 20 22 25 28 29 29 30 31 33 31 29 28 29 29 30 30 30 30 32 32 30 28 26 25 26 28 28 27 26 26 26 27 27 28 28 28 27
3 5 7 5 6 8 9 9 7 3 6 9 9 8 5 3 4 5 5 7 8 9 10 11 10 8 7 8 7 6 7 8 8 7 7 10 11 9 7 9 12 12 10 11 12 11 10 8 10 12 12 15 19 23 25 25 26 28 28 27 28 29 29 29 30 31 32 32 31 29 28 27 26 25 27 29 29 29 28 29 30 31 31 31 31 31
4 4 7 7 5 5 5 4 3 2 6 8 8 9 10 7 5 6 7 7 8 7 7 8 10 9 9 10 9 7 8 8 9 9 7 4 6 7 6 6 8 9 8 8 10 12 12 10 8 9 11 13 15 17 19 19 21 22 23 24 26 27 25 24 26 31 34 36 34 32 31 30 29 28 28 29 30 30 30 31 31 32 32 33 33 34
3 3 6 7 4 2 3 2 1 1 4 5 6 9 11 10 7 7 7 5 5 5 5 5 6 8 9 9 7 5 6 8 9 10 9 6 3 4 6 7 7 7 6 6 8 11 14 16 15 15 16 16 16 16 16 16 16 18 19 21 22 21 21 22 24 28 32 35 36 34 34 33 33 32 30 29 29 29 29 30 31 31 32 33 34 36
6 4 5 6 4 3 3 1 2 2 3 3 5 7 6 6 4 4 4 1 3 2 6 6 5 6 8 8 8 6 5 7 8 8 9 7 5 6 8 8 8 7 8 8 8 8 12 17 20 20 20 20 20 20 20 18 16 16 19 21 23 23 23 23 25 26 27 29 32 32 33 34 33 31 29 28 28 28 28 29 30 30 31 31 32 33
4 4 6 7 5 5 6 4 2 3 4 4 4 5 4 4 4 3 0 3 2 4 7 6 5 6 6 7 9 9 8 8 8 9 9 6 5 5 7 6 6 7 8 9 10 10 10 10 11 12 13 15 17 18 21 23 23 22 23 25 27 27 26 25 25 26 25 25 26 27 29 31 30 28 27 27 27 27 28 27 27 27 27 28 29 30
2 4 6 7 7 9 8 2 4 5 6 4 2 7 9 8 6 3 1 4 2 5 7 6 5 5 6 8 9 10 8 8 8 9 10 7 6 7 8 6 5 6 7 8 10 11 11 11 10 10 10 12 13 14 16 19 22 23 24 26 26 26 25 25 25 25 24 24 25 25 26 27 26 25 24 24 25 26 26 25 24 24 24 24 25 26
5 6 5 4 5 7 5 6 9 6 4 2 1 5 8 6 2 3 5 4 2 4 5 6 6 7 9 10 10 10 9 8 7 7 8 8 8 9 9 8 7 7 8 9 10 12 12 12 12 12 11 12 14 15 15 16 18 20 22 24 25 25 25 26 25 24 24 24 25 26 26 25 24 24 23 23 23 24 23 22 23 23 24 23 23 23
6 5 6 7 8 7 5 8 9 4 2 1 2 4 5 1 5 7 5 2 2 5 6 7 8 8 8 9 9 9 8 7 6 5 6 7 8 9 8 8 8 8 8 8 8 9 10 11 11 12 13 13 13 15 17 17 18 20 21 23 24 24 24 25 25 24 23 22 23 24 24 24 23 22 22 22 22 23 23 21 21 22 23 23 23 22
4 3 4 5 5 6 6 8 7 3 3 3 3 4 4 6 9 7 3 1 2 5 6 6 7 7 7 6 6 5 5 3 3 3 4 4 4 5 5 6 6 6 6 6 5 5 6 7 9 10 12 13 15 16 18 19 19 20 21 22 22 22 23 23 23 23 22 21 21 21 22 23 23 22 22 23 23 23 21 19 20 22 22 23 23 22
2 1 3 4 3 4 5 6 6 2 3 5 4 3 5 7 7 5 3 3 2 5 5 6 7 7 7 6 5 4 4 3 3 3 4 4 3 3 2 2 3 4 5 5 5 5 5 6 7 8 9 12 14 16 18 20 20 19 20 21 21 21 22 22 23 24 23 21 20 20 22 23 23 23 25 25 25 23 20 17 19 21 22 22 22 21
3 2 2 3 2 2 2 4 4 1 4 5 3 2 4 3 2 2 3 4 4 4 5 7 7 6 6 5 5 4 3 4 4 3 2 2 3 3 3 3 4 5 6 6 6 7 7 8 9 9 10 11 13 14 16 18 19 19 20 20 21 22 22 23 25 26 26 23 22 22 23 22 21 22 23 24 24 24 22 20 18 20 21 21 20 20
6 4 1 1 1 3 4 4 2 0 3 4 2 0 1 3 4 4 5 6 6 5 5 6 6 6 5 4 4 4 3 3 3 3 2 1 2 3 4 5 6 6 7 7 7 7 7 8 9 11 12 12 13 14 16 18 18 19 19 19 20 21 22 24 25 26 25 24 24 25 25 23 22 21 21 22 22 22 22 21 20 21 21 22 23 21
6 2 2 3 3 3 7 7 4 5 5 5 4 4 4 5 6 7 7 6 4 4 4 5 6 6 5 4 3 2 2 2 2 1 1 0 0 1 2 3 4 5 5 5 5 5 5 6 7 9 10 11 12 13 14 16 17 17 18 18 18 19 20 21 23 24 24 23 24 26 26 24 23 22 21 21 21 19 19 20 22 23 22 20 20 19
5 1 4 6 5 4 7 9 8 9 8 7 7 8 8 8 8 9 9 7 5 3 4 5 6 6 5 4 3 2 2 2 2 2 2 3 3 3 3 2 2 2 2 2 2 2 3 4 5 7 8 9 9 10 11 13 14 15 15 16 16 16 17 18 20 21 22 22 22 22 23 21 19 17 18 19 20 19 19 19 21 24 22 19 17 18
5 3 6 8 7 6 8 10 10 10 9 8 8 9 9 8 8 7 8 8 7 5 4 4 6 6 5 5 4 2 2 2 2 3 4 5 5 5 6 5 4 4 3 3 3 3 3 4 5 6 6 7 8 8 10 11 12 13 14 15 16 16 16 17 18 18 19 21 21 19 18 17 15 13 14 16 17 17 17 17 18 20 21 19 19 18
5 4 6 7 8 8 9 9 10 11 10 9 9 8 8 8 8 7 8 9 9 7 5 4 4 5 5 5 4 4 3 2 3 4 5 5 5 6 7 7 7 7 6 5 5 5 5 6 7 7 7 7 7 8 9 10 11 11 12 12 13 14 14 14 14 15 16 17 19 19 17 16 14 13 13 13 14 13 13 13 14 15 16 16 16 16
7 7 8 9 10 11 10 9 10 11 11 10 10 10 10 10 9 8 8 8 9 9 7 6 5 6 6 6 6 6 5 4 4 5 6 6 6 6 7 8 9 9 9 8 7 7 8 8 9 9 9 9 9 9 10 12 13 13 13 12 12 12 11 10 10 12 13 13 14 16 17 16 16 15 14 14 15 15 13 11 11 12 14 14 15 14
Wind_Direction
201 202 215 219 204 199 207 210 222 239 243 263 272 217 187 187 185 201 211 208 217 213 212 210 209 210 208 199 187 179 173 170 174 180 190 194 198 200 180 193 212 186 182 193 179 171 180 185 179 189 205 200 193 193 185 179 174 167 156 157 156 151 150 144 142 141 144 147 147 143 139 138 137 134 135 135 137 138 137 137 138 141 143 145 146 142
210 211 220 229 211 197 205 222 237 252 253 261 273 202 175 199 212 193 201 205 209 210 209 210 211 212 209 203 191 182 175 173 176 180 192 195 196 199 181 196 214 183 183 197 181 177 190 199 189 191 210 212 197 193 186 179 176 175 165 161 160 156 156 150 144 144 145 147 150 147 143 143 142 140 138 137 138 139 140 141 142 144 147 149 148 145
216 227 223 217 219 209 209 225 238 248 252 254 268 250 172 178 170 147 170 196 188 195 206 213 214 215 217 208 194 188 181 178 179 181 189 191 193 198 184 198 211 182 186 200 187 184 197 208 202 197 212 218 201 190 186 182 181 181 174 168 166 163 164 158 151 150 150 151 151 151 151 152 151 147 144 141 141 142 143 144 146 147 150 152 151 150
215 237 235 206 210 218 223 235 238 241 250 254 261 260 175 173 180 161 162 171 162 176 200 211 212 218 223 213 200 196 190 186 184 183 189 190 189 193 190 203 213 187 188 203 191 185 200 212 211 204 212 217 201 189 189 188 187 185 180 178 173 170 171 167 161 158 155 153 153 156 161 164 160 155 151 149 146 147 147 147 149 150 152 154 154 152
223 236 255 205 201 217 226 235 238 238 245 248 251 255 183 182 211 202 168 163 159 175 198 197 203 218 221 215 204 201 199 196 193 189 192 193 187 188 191 206 218 199 192 204 195 187 201 214 216 211 212 214 199 190 194 193 191 188 182 183 180 175 175 172 173 169 158 156 160 162 167 170 168 163 160 156 153 152 150 150 152 152 154 156 155 152
235 232 238 210 197 213 223 228 236 242 248 244 237 240 230 211 210 196 172 168 171 181 199 192 190 216 216 213 207 203 203 201 199 195 194 195 191 188 189 201 217 207 197 205 199 192 203 214 218 215 214 214 198 191 198 193 193 193 187 188 186 181 178 176 178 174 165 166 167 164 168 173 173 170 167 162 160 159 156 156 157 157 159 161 160 157
238 233 227 228 213 210 219 231 234 232 237 237 233 230 216 199 190 186 178 173 177 182 195 194 186 198 206 209 209 208 208 204 204 202 198 198 195 190 188 195 211 210 203 206 202 197 206 215 216 213 214 215 198 194 200 194 194 196 191 191 190 187 183 180 180 175 174 176 173 169 171 176 178 175 171 169 169 166 163 164 164 164 166 167 168 165
232 236 225 238 238 213 215 227 227 224 229 231 234 225 179 172 191 216 200 193 189 169 174 192 192 180 194 202 202 206 210 207 209 209 202 201 199 194 190 191 202 209 208 208 204 200 207 215 215 208 210 214 201 198 203 197 195 197 194 193 193 191 187 184 183 179 180 181 179 178 176 177 179 175 173 174 174 171 168 171 171 170 172 173 176 174
248 234 223 242 244 210 210 223 225 226 233 233 232 234 203 196 209 213 209 212 195 171 172 188 191 181 194 200 196 201 208 209 211 210 206 204 203 199 194 190 194 203 209 212 207 202 207 215 215 206 207 211 205 204 206 198 196 200 198 195 194 193 191 189 187 185 186 185 184 186 184 181 179 177 176 175 175 174 173 176 176 176 178 178 180 181
266 233 232 243 224 213 219 227 221 215 224 230 227 242 281 255 206 199 213 206 184 176 183 188 185 177 191 197 195 199 210 215 213 212 210 206 207 207 200 195 194 196 206 214 211 204 209 215 215 206 204 210 208 208 209 199 194 201 201 197 197 195 195 195 194 191 191 190 190 190 189 186 184 183 180 177 177 177 178 180 181 181 185 185 184 186
259 231 250 219 202 214 229 220 206 211 216 215 228 254 272 271 254 250 262 226 175 194 224 199 189 183 187 200 201 206 222 225 213 212 211 203 205 212 206 200 198 195 201 214 214 207 207 214 219 212 203 208 210 208 211 202 194 201 203 198 199 198 198 199 200 200 196 193 195 194 190 189 189 188 184 181 182 182 181 184 185 186 188 189 189 192
254 247 260 199 196 211 228 253 212 212 223 217 232 256 272 275 281 310 309 331 6 268 269 221 199 193 199 203 206 219 231 226 208 208 209 203 201 209 209 203 199 196 199 211 217 208 204 210 218 216 205 207 212 208 212 208 195 201 205 202 203 201 200 201 203 207 203 199 200 197 193 191 190 189 187 187 189 189 185 187 190 191 189 189 191 196
251 251 247 205 215 210 213 253 221 202 215 217 225 238 262 293 270 291 307 334 259 241 248 236 206 197 214 225 213 218 203 205 210 204 206 206 201 203 210 207 201 199 199 208 214 207 204 207 212 214 204 205 212 210 214 213 196 199 207 206 206 205 203 203 204 209 210 207 205 202 197 195 194 191 190 191 194 195 192 193 196 196 193 192 194 198
279 245 217 196 215 210 201 220 220 216 218 215 220 223 221 275 244 239 239 197 227 238 244 242 215 194 216 250 241 219 189 188 206 198 202 207 201 198 208 210 205 204 203 207 210 205 207 210 210 213 207 205 212 210 214 217 200 198 208 208 207 207 206 205 205 209 212 212 212 208 202 199 200 198 194 196 199 199 198 200 203 202 199 198 198 205
310 255 228 212 212 221 210 204 214 238 225 217 226 222 214 232 248 241 234 258 244 251 263 246 208 173 174 193 222 215 183 183 194 192 194 203 203 201 207 210 206 206 206 209 210 205 209 213 211 212 209 209 212 210 215 221 211 204 208 208 209 209 209 209 207 208 211 213 215 213 206 202 203 203 200 199 200 202 202 202 205 205 206 207 208 214
308 304 295 258 224 233 232 206 215 248 249 231 222 206 211 227 240 260 272 285 280 287 303 249 146 145 162 165 200 192 181 182 183 183 185 194 202 205 209 210 207 205 207 210 211 207 209 213 213 212 212 214 215 214 217 221 216 209 207 208 210 210 211 212 211 210 210 211 214 214 210 206 204 204 205 205 204 206 206 205 206 208 211 214 213 218
317 314 347 306 235 225 232 219 223 239 262 255 202 191 213 228 239 265 282 295 297 290 236 152 129 140 149 141 166 179 183 183 175 180 185 190 197 203 209 211 209 207 208 212 214 210 209 213 216 216 215 215 215 217 221 222 219 213 209 210 211 209 210 212 212 212 210 212 213 213 211 209 206 205 206 209 209 210 212 211 210 211 214 218 215 216
327 290 202 342 261 214 224 242 232 228 240 268 204 188 218 232 240 262 298 322 313 305 203 166 149 150 148 148 172 179 191 195 181 179 188 195 199 203 207 209 210 209 209 212 215 214 211 212 216 218 219 217 214 217 222 223 222 216 211 213 214 214 213 212 214 214 212 213 214 213 212 211 209 208 208 210 211 213 214 214 215 216 217 221 219 216
330 297 284 312 324 250 240 225 222 230 236 262 270 196 208 227 236 244 257 304 281 287 329 131 140 147 146 166 182 185 191 196 189 187 192 196 200 205 206 206 207 208 209 212 213 212 210 210 213 217 220 220 216 217 220 222 222 217 209 212 214 214 214 214 215 216 214 215 216 215 214 212 210 210 212 212 215 217 216 216 218 217 218 225 226 222
322 314 302 303 329 341 259 195 227 286 258 262 273 242 232 242 229 223 224 238 250 244 354 54 76 82 98 176 189 189 193 198 199 199 200 198 197 204 207 205 205 206 208 211 212 210 208 208 213 217 220 222 219 218 219 220 222 219 212 212 215 214 212 213 214 215 216 216 217 218 216 214 213 212 215 216 218 222 222 221 222 219 218 225 228 226
300 319 315 304 304 326 348 336 312 317 303 280 264 246 254 252 224 213 218 229 242 256 178 129 89 179 155 179 186 187 195 209 215 210 205 204 203 205 207 206 206 205 207 210 212 210 208 208 212 216 219 223 221 219 219 220 222 221 215 211 215 217 214 213 214 214 216 216 218 219 219 217 215 214 217 219 221 224 225 225 226 228 226 225 227 229
319 319 314 309 295 302 321 323 299 293 296 294 272 247 252 256 238 216 206 217 227 247 252 182 130 176 184 176 179 184 194 208 218 223 223 224 219 211 207 207 208 207 208 211 211 211 209 207 209 213 216 219 221 218 217 217 219 221 216 210 213 218 217 217 216 216 216 218 218 218 218 219 217 216 218 220 223 225 226 226 227 230 231 228 229 232
330 330 320 307 294 305 308 283 268 294 279 284 291 258 247 256 256 235 198 208 217 233 244 226 128 157 187 172 171 183 194 205 212 221 231 236 229 221 218 214 210 208 210 211 211 212 211 208 209 212 210 211 217 217 213 214 217 220 218 213 213 216 218 219 219 217 217 219 220 218 218 220 219 219 219 220 223 226 227 228 228 229 231 230 231 232
336 348 338 311 294 304 296 269 284 299 275 300 316 278 244 252 267 261 245 255 257 249 245 232 109 141 174 163 172 188 197 206 211 218 224 226 224 223 224 222 217 213 212 213 216 216 216 214 215 216 212 208 210 211 208 210 216 220 219 217 216 216 216 219 220 218 218 219 220 219 219 221 221 221 222 222 223 227 229 230 230 230 231 232 232 232
352 4 348 331 321 320 300 280 287 283 275 323 340 317 261 258 292 283 261 276 329 35 60 80 100 155 169 165 180 198 207 207 207 215 219 218 219 219 221 226 227 225 221 219 222 222 221 220 219 220 219 213 209 210 209 210 215 220 221 221 221 217 215 219 221 220 219 220 221 220 219 221 222 222 224 225 226 227 229 232 232 231 233 235 236 236
315 333 343 336 329 332 303 291 301 307 301 303 333 342 342 357 355 337 299 342 40 63 76 95 127 154 168 172 173 191 218 216 208 212 217 216 218 219 225 232 233 233 232 230 231 229 226 224 220 220 220 214 211 214 213 209 213 219 223 224 223 220 218 221 224 224 221 220 222 221 219 221 223 223 224 226 228 228 230 234 236 235 232 233 238 239
306 294 315 306 289 283 289 290 300 316 313 304 322 347 1 356 357 5 19 37 52 71 90 110 125 139 158 173 169 176 201 209 205 208 215 218 221 227 235 236 232 235 236 237 239 235 232 227 221 220 221 215 213 218 216 211 212 218 223 225 223 222 222 223 225 228 225 223 223 223 222 222 223 225 225 225 227 229 231 234 237 240 237 233 236 239
294 283 293 285 280 278 282 293 304 310 309 306 316 344 1 345 340 0 16 27 37 55 92 122 112 105 123 109 109 149 157 174 199 212 216 226 232 233 234 231 230 234 233 232 234 231 230 229 221 218 220 218 214 217 217 214 214 216 219 222 220 220 223 223 225 228 228 226 225 224 224 223 224 224 225 226 226 227 231 232 234 239 240 235 233 235
279 298 307 295 297 299 285 279 288 290 299 309 311 332 355 356 345 349 1 17 34 49 81 122 105 95 100 83 306 169 151 157 193 210 222 239 236 225 229 233 232 233 231 226 229 231 227 226 220 214 213 214 215 217 219 218 218 219 219 220 217 217 221 222 224 229 230 227 224 220 218 220 223 225 225 225 225 224 227 230 232 234 237 237 234 232
290 298 310 300 300 310 309 288 275 275 291 304 308 332 354 357 357 6 358 338 2 48 78 111 111 103 98 62 332 200 176 184 200 207 223 239 231 224 232 238 236 235 233 222 219 225 222 221 223 216 212 212 214 216 219 218 217 219 222 224 222 221 223 223 226 230 230 230 228 222 216 214 216 220 223 224 225 227 229 232 235 238 240 242 241 237
308 308 318 308 301 302 302 300 284 262 280 297 304 329 356 356 351 9 17 355 341 19 56 94 116 118 115 56 24 109 168 201 206 205 220 232 234 238 241 240 237 240 243 231 217 218 217 217 226 226 221 221 221 221 221 219 216 216 218 219 220 221 224 227 230 231 232 236 238 234 228 222 219 222 225 226 228 233 236 238 241 244 246 248 247 246
317 319 310 314 312 302 290 289 283 256 247 275 301 297 339 9 2 358 12 17 15 7 10 55 75 93 146 186 28 74 123 227 227 203 200 210 225 247 250 238 232 236 244 240 227 222 220 215 221 228 225 226 230 230 227 225 226 225 222 219 218 220 225 229 234 237 237 238 238 236 235 234 232 234 236 236 236 239 240 241 244 247 249 251 251 252
303 318 307 307 302 300 303 298 288 261 218 155 19 287 288 359 12 11 4 2 2 2 3 20 31 35 150 233 264 329 308 285 260 208 183 191 211 234 244 231 223 227 242 246 237 227 218 204 209 220 221 221 226 229 229 230 232 232 230 225 224 227 230 232 236 239 238 234 232 230 230 232 237 242 245 243 241 243 244 245 247 248 250 252 254 255
284 299 296 303 288 288 307 311 306 314 148 119 68 10 296 318 345 0 18 17 12 14 22 23 18 11 341 298 283 283 288 288 275 226 191 195 210 226 241 230 221 221 238 254 252 237 220 202 205 216 222 221 223 228 231 232 234 235 233 229 229 231 234 235 238 239 236 233 231 229 229 235 242 246 248 247 245 247 250 252 252 252 252 253 254 256
299 297 290 295 282 279 299 315 322 21 98 107 87 60 46 30 359 349 17 34 25 21 30 24 6 354 347 341 333 310 291 285 275 255 218 197 200 209 216 213 207 206 224 250 249 237 239 239 222 220 227 226 222 225 229 232 236 240 242 242 241 241 240 243 248 249 247 246 244 243 244 248 248 246 248 249 249 250 252 253 253 252 251 252 253 255
271 290 293 292 287 277 280 311 343 74 111 113 109 89 69 53 20 357 356 10 11 8 21 22 2 342 335 347 356 337 302 283 266 266 270 234 197 208 221 220 212 211 227 240 227 224 238 247 231 220 226 230 226 224 227 232 235 239 243 245 248 250 251 255 257 256 253 251 250 250 251 251 252 254 255 253 252 253 253 253 253 252 252 252 252 253
275 287 302 297 298 294 269 276 14 100 113 105 118 96 55 27 13 354 340 358 27 2 332 339 340 325 326 344 359 346 308 283 270 275 288 296 277 252 262 270 256 239 244 243 226 221 223 219 214 212 216 224 230 229 230 234 239 245 247 246 247 252 258 261 260 254 250 248 247 247 248 252 257 259 257 253 252 254 254 254 255 255 254 254 254 254
294 289 312 306 299 304 285 229 98 145 143 114 128 116 58 25 27 352 319 10 79 343 300 304 318 318 325 339 342 326 296 285 288 288 288 299 316 293 273 272 269 268 278 280 273 255 227 214 212 211 211 218 224 225 223 222 225 235 242 242 241 242 247 253 256 254 250 249 249 248 249 254 256 254 252 251 252 253 254 255 255 254 254 254 254 253
300 286 302 301 287 276 261 221 149 130 140 143 168 187 223 247 232 239 262 88 85 265 273 298 328 324 327 350 354 334 298 279 283 289 290 301 320 301 283 281 284 287 292 293 293 292 277 253 239 234 232 235 234 230 225 224 225 229 234 237 237 237 240 243 247 250 252 252 253 251 249 250 250 248 248 250 250 250 252 253 253 253 252 251 250 250
315 293 288 284 277 280 276 206 118 107 121 130 196 216 228 249 259 252 97 64 27 272 274 304 329 330 333 349 359 352 330 299 282 281 286 293 301 301 299 304 304 295 291 293 295 297 297 291 285 285 286 283 276 264 250 244 245 246 246 246 244 242 243 242 242 246 248 247 249 250 249 249 251 250 249 249 249 251 252 253 254 255 253 251 250 249
311 299 302 337 343 322 343 87 103 112 130 129 277 246 245 263 327 71 91 80 4 309 315 325 327 333 335 331 332 340 342 331 313 293 280 279 289 299 305 314 313 300 294 296 296 295 296 296 293 291 288 288 289 287 279 271 268 265 261 258 254 249 247 245 242 242 243 244 247 250 250 250 251 252 250 249 250 251 250 250 253 253 252 252 251 251
330 312 316 357 21 17 40 98 109 88 49 39 312 298 288 252 100 89 89 99 327 337 347 345 343 346 342 332 330 333 333 330 329 320 296 278 276 283 294 309 315 310 308 308 299 289 285 286 291 293 287 281 280 283 285 283 279 276 274 270 264 258 254 252 247 244 243 243 244 248 251 250 249 250 250 250 250 250 248 248 249 249 249 248 248 249
346 353 339 347 20 45 72 105 108 62 357 332 314 328 12 91 109 103 106 213 320 1 2 353 357 2 356 351 355 0 356 342 340 352 341 312 286 285 290 299 307 308 309 308 300 288 273 267 274 286 290 286 281 279 279 276 272 271 271 270 267 264 262 261 255 249 247 244 242 245 248 249 248 248 249 249 249 250 248 243 242 243 243 243 245 247
298 34 48 31 42 67 84 99 103 108 306 326 342 13 61 92 116 136 182 243 331 17 9 354 1 7 5 5 8 21 36 35 42 42 23 4 357 350 331 310 316 327 333 332 326 320 308 290 280 279 281 283 282 278 274 268 264 262 260 258 258 259 263 265 261 254 249 246 244 246 247 247 246 246 248 248 248 248 244 233 232 238 239 238 242 246
234 198 58 19 13 54 75 98 106 129 308 332 9 93 107 117 159 219 260 295 331 0 353 346 355 3 6 7 0 1 29 49 59 64 46 21 24 25 23 19 8 359 358 355 347 336 325 316 307 296 287 283 281 278 273 266 261 257 255 254 253 252 254 257 259 258 254 249 246 246 247 247 245 245 246 246 245 245 243 236 231 234 239 238 237 237
246 255 280 260 179 96 98 100 98 287 308 329 351 62 233 253 274 291 299 312 329 342 342 340 345 351 1 7 356 351 9 28 46 73 90 90 67 47 38 31 22 14 6 358 353 348 334 318 308 301 295 291 287 284 280 276 271 266 263 263 261 258 254 252 251 252 251 247 245 245 243 242 241 240 239 240 241 241 240 238 231 226 228 230 229 230
244 256 136 178 205 160 144 146 173 219 245 277 295 297 286 288 307 319 317 317 325 335 341 341 338 344 359 9 354 336 339 345 359 33 60 260 336 22 25 16 12 13 9 0 355 349 334 319 312 308 306 304 300 295 291 287 283 279 276 274 272 270 267 262 257 252 248 244 241 241 239 235 234 236 236 235 235 230 227 230 230 225 218 210 210 220
245 255 167 190 209 200 179 179 204 240 264 279 282 287 295 301 309 313 310 308 310 318 325 324 326 336 353 1 352 334 316 313 311 299 274 268 278 286 284 297 328 341 338 336 335 326 315 310 311 312 313 313 308 300 294 290 288 287 285 284 284 283 281 279 272 264 257 249 243 239 235 230 228 232 235 233 230 226 222 222 226 230 229 218 208 214
261 256 219 213 212 216 214 211 223 245 259 265 273 287 301 307 309 307 304 304 311 319 316 308 312 318 325 331 332 324 307 296 297 290 276 270 277 280 279 283 287 287 283 266 256 263 270 275 283 289 292 294 293 290 288 286 288 290 291 292 293 292 291 289 285 276 265 258 253 248 241 233 228 227 231 233 231 228 224 221 223 231 234 229 221 214
244 224 218 225 230 231 229 227 235 247 251 256 267 278 286 294 300 300 302 308 315 318 317 313 308 303 303 308 306 302 303 302 301 298 288 283 282 277 277 281 281 281 280 269 261 261 260 264 274 280 280 279 279 282 287 288 291 295 298 299 298 296 295 294 288 279 268 259 257 255 248 242 237 230 227 231 233 231 224 219 223 231 229 225 223 215
220 206 204 216 230 239 247 255 260 258 257 264 276 281 281 284 286 284 291 303 310 311 311 310 302 292 291 293 292 295 297 291 287 289 288 288 286 277 274 276 277 279 281 275 270 269 267 267 274 281 286 287 282 280 284 288 292 295 297 298 297 296 300 300 290 280 272 260 253 251 249 249 249 242 231 225 226 229 228 219 218 227 226 224 226 222
Height
3154 3155 3156 3157 3158 3159 3161 3161 3160 3163 3165 3166 3165 3164 3163 3165 3167 3168 3169 3170 3171 3172 3173 3175 3177 3178 3180 3182 3185 3187 3189 3191 3193 3196 3197 3198 3199 3200 3202 3202 3203 3204 3206 3206 3208 3209 3210 3211 3213 3212 3211 3212 3213 3214 3214 3215 3216 3216 3217 3218 3219 3220 3221 3222 3223 3224 3225 3226 3226 3227 3228 3228 3229 3230 3230 3231 3232 3233 3234 3235 3236 3237 3238 3239 3239 3240
3154 3155 3155 3156 3158 3159 3160 3161 3161 3163 3164 3163 3164 3163 3162 3163 3165 3166 3167 3168 3170 3171 3172 3174 3175 3176 3178 3180 3184 3186 3188 3189 3191 3193 3196 3198 3199 3200 3201 3202 3203 3205 3206 3206 3208 3209 3209 3210 3212 3212 3211 3212 3214 3214 3215 3216 3216 3217 3218 3218 3219 3220 3221 3222 3223 3224 3225 3226 3227 3228 3229 3229 3230 3231 3232 3232 3233 3234 3235 3236 3237 3238 3239 3240 3241 3242
3154 3154 3155 3156 3157 3159 3159 3160 3161 3162 3162 3162 3163 3163 3161 3161 3163 3166 3167 3168 3168 3170 3171 3172 3174 3175 3176 3179 3182 3184 3186 3187 3189 3191 3194 3196 3198 3199 3201 3201 3202 3204 3205 3206 3207 3208 3209 3209 3211 3211 3211 3212 3214 3214 3215 3216 3217 3218 3218 3219 3220 3221 3222 3223 3224 3225 3226 3227 3228 3229 3229 3230 3231 3232 3232 3233 3234 3235 3236 3237 3238 3239 3240 3241 3242 3243
3153 3153 3154 3155 3156 3158 3158 3159 3160 3160 3161 3161 3161 3161 3161 3160 3161 3164 3167 3168 3168 3169 3170 3171 3173 3174 3175 3177 3181 3184 3187 3188 3189 3190 3192 3194 3196 3198 3200 3200 3201 3203 3204 3205 3206 3208 3208 3208 3209 3211 3211 3212 3213 3214 3215 3216 3217 3218 3219 3220 3220 3221 3222 3223 3224 3225 3226 3227 3228 3229 3230 3231 3231 3232 3233 3234 3235 3236 3237 3238 3239 3240 3241 3242 3243 3244
3151 3151 3152 3154 3155 3157 3158 3158 3158 3158 3159 3160 3159 3160 3160 3160 3161 3162 3164 3167 3168 3169 3169 3169 3172 3173 3173 3176 3179 3183 3186 3187 3188 3189 3190 3193 3195 3197 3199 3199 3200 3203 3204 3204 3205 3206 3207 3207 3208 3210 3210 3211 3213 3214 3215 3216 3217 3218 3219 3220 3221 3222 3223 3224 3224 3226 3227 3228 3229 3229 3230 3231 3232 3233 3233 3234 3235 3236 3238 3239 3240 3241 3242 3243 3244 3245
3150 3151 3152 3153 3153 3155 3157 3157 3157 3158 3159 3159 3158 3159 3159 3159 3162 3163 3162 3164 3166 3167 3167 3168 3171 3172 3173 3175 3177 3180 3182 3184 3186 3188 3189 3192 3194 3195 3197 3198 3199 3202 3203 3203 3204 3205 3206 3206 3207 3209 3209 3210 3212 3214 3215 3216 3217 3218 3219 3220 3221 3222 3223 3224 3225 3226 3227 3228 3229 3230 3231 3232 3232 3233 3234 3235 3236 3237 3238 3239 3240 3241 3242 3243 3244 3245
3149 3150 3151 3152 3153 3154 3155 3156 3156 3157 3159 3157 3156 3158 3157 3157 3161 3162 3161 3162 3163 3164 3165 3166 3168 3170 3172 3173 3175 3177 3180 3182 3184 3186 3187 3189 3192 3194 3195 3196 3198 3200 3201 3202 3204 3204 3205 3205 3206 3208 3209 3209 3211 3213 3214 3216 3217 3218 3219 3220 3221 3222 3223 3224 3225 3226 3227 3228 3229 3230 3231 3232 3233 3234 3235 3235 3236 3237 3238 3239 3240 3241 3242 3243 3244 3245
3148 3149 3149 3150 3151 3152 3154 3155 3155 3156 3157 3155 3155 3158 3157 3157 3160 3161 3160 3159 3159 3161 3163 3164 3166 3168 3169 3171 3173 3174 3177 3180 3181 3183 3185 3186 3189 3191 3193 3195 3197 3198 3199 3200 3202 3203 3204 3204 3205 3207 3208 3209 3211 3212 3213 3215 3216 3217 3219 3220 3221 3222 3223 3224 3225 3226 3227 3228 3229 3229 3230 3231 3232 3234 3235 3236 3237 3237 3238 3239 3240 3241 3242 3243 3244 3245
3147 3148 3148 3149 3149 3151 3152 3154 3154 3155 3155 3153 3154 3157 3157 3157 3158 3158 3157 3157 3157 3159 3161 3163 3165 3167 3167 3168 3170 3172 3174 3175 3176 3178 3181 3183 3186 3188 3191 3193 3194 3196 3198 3199 3200 3202 3202 3203 3204 3206 3207 3208 3209 3211 3212 3214 3216 3217 3218 3219 3221 3222 3223 3224 3225 3226 3227 3228 3229 3229 3230 3231 3232 3234 3235 3236 3237 3238 3239 3240 3241 3241 3242 3243 3244 3245
3146 3147 3148 3148 3149 3150 3151 3152 3153 3154 3153 3153 3154 3155 3156 3157 3158 3157 3158 3158 3158 3158 3159 3160 3162 3163 3165 3165 3167 3169 3170 3169 3170 3174 3177 3180 3183 3186 3188 3190 3192 3194 3196 3197 3199 3200 3201 3202 3203 3205 3207 3207 3208 3209 3211 3213 3215 3216 3217 3218 3220 3221 3223 3224 3225 3226 3227 3228 3229 3229 3230 3232 3233 3234 3235 3236 3237 3238 3239 3240 3241 3242 3242 3243 3244 3245
3145 3147 3147 3147 3147 3148 3149 3149 3152 3152 3153 3154 3155 3154 3154 3155 3156 3157 3158 3158 3158 3157 3156 3157 3158 3159 3162 3163 3163 3164 3165 3165 3166 3170 3173 3177 3180 3182 3185 3188 3190 3192 3194 3195 3197 3199 3200 3201 3202 3204 3206 3206 3207 3208 3209 3211 3213 3214 3216 3217 3219 3220 3222 3223 3224 3225 3226 3227 3228 3229 3230 3231 3233 3234 3235 3236 3237 3238 3239 3240 3241 3242 3242 3243 3244 3245
3144 3146 3147 3146 3146 3148 3148 3148 3150 3152 3153 3154 3155 3155 3155 3154 3154 3155 3155 3155 3156 3157 3155 3155 3155 3157 3159 3160 3160 3161 3162 3163 3164 3165 3168 3172 3175 3178 3182 3185 3187 3190 3192 3193 3195 3197 3199 3199 3200 3202 3204 3205 3206 3207 3208 3209 3212 3213 3215 3216 3218 3219 3221 3222 3224 3225 3226 3227 3228 3229 3230 3231 3232 3234 3235 3236 3237 3238 3239 3240 3241 3241 3242 3243 3244 3244
3143 3144 3146 3146 3147 3149 3150 3148 3149 3151 3152 3154 3154 3155 3155 3154 3155 3156 3155 3155 3156 3156 3154 3154 3155 3157 3157 3156 3157 3159 3160 3161 3162 3163 3165 3168 3172 3176 3179 3182 3185 3187 3189 3191 3192 3195 3196 3198 3199 3200 3202 3203 3204 3205 3206 3208 3211 3212 3213 3215 3217 3218 3220 3221 3223 3224 3225 3226 3227 3229 3230 3231 3232 3233 3235 3235 3237 3238 3238 3239 3240 3241 3242 3243 3244 3244
3143 3143 3144 3145 3145 3148 3149 3148 3148 3149 3151 3153 3153 3154 3155 3156 3157 3158 3156 3156 3155 3153 3152 3153 3155 3155 3155 3155 3156 3158 3159 3159 3160 3161 3164 3167 3170 3174 3177 3180 3182 3185 3187 3188 3190 3192 3194 3195 3197 3198 3200 3202 3203 3204 3205 3206 3209 3211 3212 3214 3215 3217 3219 3220 3222 3223 3224 3226 3227 3228 3229 3231 3232 3233 3234 3235 3236 3237 3238 3239 3240 3241 3242 3243 3244 3244
3144 3144 3144 3145 3144 3146 3148 3147 3146 3148 3150 3151 3152 3154 3155 3155 3157 3157 3155 3154 3153 3151 3150 3150 3152 3152 3153 3154 3155 3156 3157 3158 3159 3160 3163 3166 3169 3172 3175 3177 3179 3181 3184 3185 3187 3190 3192 3193 3195 3197 3199 3200 3201 3203 3203 3204 3207 3210 3211 3212 3214 3216 3217 3219 3220 3222 3223 3225 3226 3227 3229 3230 3231 3233 3234 3235 3236 3237 3238 3239 3239 3240 3241 3242 3243 3244
3144 3143 3143 3143 3143 3144 3145 3145 3146 3148 3149 3149 3151 3153 3154 3154 3155 3154 3153 3152 3151 3150 3149 3148 3150 3152 3153 3154 3154 3155 3156 3157 3158 3160 3161 3164 3167 3169 3171 3173 3175 3178 3181 3183 3185 3188 3189 3191 3193 3195 3197 3199 3200 3201 3202 3203 3206 3208 3210 3211 3213 3214 3216 3218 3219 3220 3222 3224 3225 3227 3228 3229 3231 3232 3233 3234 3235 3236 3237 3238 3239 3240 3241 3242 3243 3244
3145 3143 3142 3142 3142 3143 3144 3145 3146 3148 3148 3148 3149 3151 3152 3153 3154 3153 3153 3150 3150 3150 3148 3148 3150 3152 3152 3153 3154 3154 3155 3156 3157 3158 3159 3161 3164 3166 3167 3169 3172 3175 3178 3180 3183 3185 3187 3189 3191 3193 3195 3197 3198 3199 3200 3202 3205 3207 3209 3210 3212 3213 3214 3216 3218 3219 3221 3222 3224 3226 3227 3229 3230 3231 3232 3233 3234 3235 3236 3238 3238 3239 3240 3241 3242 3243
3146 3143 3140 3141 3143 3143 3144 3144 3145 3147 3147 3147 3148 3150 3151 3152 3152 3153 3153 3151 3150 3150 3147 3145 3147 3150 3152 3152 3153 3153 3154 3154 3155 3157 3158 3160 3161 3162 3164 3166 3170 3173 3176 3178 3181 3183 3185 3187 3189 3191 3193 3195 3197 3198 3198 3200 3203 3205 3208 3209 3211 3212 3213 3215 3216 3218 3219 3221 3223 3224 3226 3228 3229 3230 3232 3233 3234 3235 3236 3237 3238 3239 3240 3240 3241 3242
3146 3143 3139 3140 3142 3142 3143 3143 3144 3146 3146 3146 3147 3148 3150 3151 3151 3151 3152 3151 3151 3150 3148 3148 3149 3150 3152 3152 3152 3153 3152 3153 3154 3155 3157 3158 3159 3160 3162 3164 3167 3171 3174 3176 3178 3181 3183 3185 3186 3188 3190 3193 3195 3196 3197 3199 3201 3204 3206 3208 3209 3210 3212 3213 3215 3216 3218 3220 3221 3223 3225 3226 3228 3229 3230 3231 3232 3234 3235 3236 3237 3238 3239 3239 3240 3241
3146 3144 3139 3138 3140 3140 3141 3142 3143 3145 3145 3145 3147 3147 3148 3149 3149 3149 3149 3149 3150 3149 3150 3154 3154 3153 3154 3153 3152 3153 3153 3153 3153 3154 3156 3157 3159 3160 3161 3163 3165 3168 3171 3173 3176 3179 3181 3183 3185 3187 3189 3191 3193 3195 3195 3197 3199 3201 3204 3206 3207 3209 3210 3211 3213 3215 3216 3218 3220 3222 3223 3225 3226 3228 3229 3230 3231 3232 3234 3235 3236 3237 3238 3239 3239 3240
3146 3145 3142 3139 3140 3140 3141 3141 3142 3144 3145 3146 3147 3147 3146 3146 3147 3147 3146 3146 3147 3147 3147 3152 3156 3155 3155 3154 3153 3154 3155 3155 3155 3156 3157 3158 3159 3161 3162 3163 3165 3167 3169 3172 3175 3177 3180 3182 3184 3185 3187 3189 3192 3193 3194 3195 3196 3199 3202 3204 3205 3207 3208 3210 3211 3213 3215 3217 3218 3220 3222 3223 3225 3226 3227 3229 3230 3231 3232 3234 3235 3236 3237 3238 3238 3239
3146 3146 3145 3143 3142 3141 3141 3141 3141 3142 3143 3145 3147 3146 3144 3144 3146 3147 3145 3145 3145 3144 3143 3146 3152 3154 3153 3153 3153 3154 3155 3156 3157 3158 3159 3159 3160 3161 3162 3164 3165 3167 3169 3171 3174 3176 3178 3180 3181 3182 3184 3187 3190 3191 3192 3193 3194 3196 3199 3202 3204 3205 3207 3208 3209 3211 3213 3215 3217 3219 3220 3222 3223 3225 3226 3227 3229 3230 3231 3232 3233 3234 3235 3236 3237 3238
3147 3147 3146 3145 3144 3143 3143 3141 3140 3141 3142 3141 3143 3145 3144 3144 3145 3145 3144 3144 3143 3142 3141 3142 3147 3150 3151 3151 3153 3154 3155 3156 3156 3157 3159 3160 3160 3161 3162 3163 3164 3165 3167 3170 3172 3173 3175 3176 3177 3178 3181 3184 3187 3189 3191 3191 3192 3195 3197 3200 3202 3203 3205 3206 3208 3210 3211 3213 3215 3217 3219 3220 3222 3223 3224 3226 3227 3229 3230 3231 3232 3233 3234 3235 3236 3237
3148 3148 3147 3146 3144 3143 3142 3141 3139 3140 3141 3141 3141 3142 3143 3144 3143 3142 3142 3142 3142 3142 3140 3141 3146 3150 3151 3151 3153 3154 3155 3156 3155 3156 3157 3158 3159 3160 3160 3160 3161 3163 3166 3168 3170 3171 3173 3175 3176 3177 3181 3183 3185 3186 3188 3190 3191 3193 3195 3198 3200 3202 3203 3204 3206 3208 3210 3211 3213 3215 3217 3219 3220 3222 3223 3224 3226 3227 3228 3229 3231 3232 3232 3234 3235 3236
3148 3148 3147 3147 3145 3144 3143 3142 3140 3140 3141 3142 3142 3142 3143 3143 3142 3141 3141 3141 3142 3142 3140 3141 3148 3151 3150 3151 3153 3154 3155 3155 3155 3155 3156 3157 3157 3157 3158 3159 3161 3163 3165 3167 3168 3169 3171 3173 3175 3177 3180 3181 3182 3184 3186 3188 3190 3192 3193 3195 3197 3200 3201 3202 3204 3206 3208 3209 3211 3213 3215 3217 3219 3220 3222 3223 3224 3226 3227 3228 3229 3230 3231 3232 3233 3234
3148 3148 3148 3148 3148 3147 3147 3146 3144 3143 3143 3142 3144 3144 3143 3142 3141 3141 3139 3139 3142 3143 3140 3142 3147 3149 3150 3151 3152 3153 3153 3154 3154 3155 3156 3156 3156 3157 3159 3161 3161 3162 3163 3165 3166 3168 3170 3171 3173 3175 3177 3178 3180 3182 3184 3186 3188 3190 3191 3193 3195 3197 3199 3201 3202 3204 3206 3208 3210 3212 3214 3216 3218 3219 3221 3222 3223 3224 3225 3226 3227 3228 3230 3231 3231 3232
3148 3148 3148 3148 3148 3148 3148 3147 3146 3146 3145 3144 3144 3145 3143 3141 3141 3141 3140 3141 3143 3143 3142 3143 3146 3148 3150 3152 3152 3152 3152 3153 3154 3155 3155 3155 3156 3157 3160 3161 3160 3160 3162 3164 3165 3167 3167 3167 3169 3171 3174 3176 3178 3181 3183 3184 3186 3187 3189 3190 3192 3195 3197 3199 3200 3202 3205 3207 3209 3211 3213 3215 3217 3218 3220 3221 3222 3223 3224 3225 3225 3226 3227 3229 3229 3230
3148 3148 3147 3147 3147 3147 3146 3146 3145 3146 3146 3146 3145 3145 3143 3142 3142 3143 3143 3143 3143 3142 3144 3147 3147 3148 3150 3152 3152 3152 3152 3153 3154 3154 3154 3154 3155 3157 3158 3158 3157 3158 3160 3162 3162 3163 3164 3164 3165 3167 3170 3173 3175 3177 3179 3181 3182 3184 3186 3188 3190 3192 3195 3197 3199 3200 3203 3206 3208 3211 3213 3214 3216 3217 3218 3219 3221 3222 3223 3223 3224 3224 3225 3226 3227 3228
3147 3147 3147 3146 3145 3145 3145 3146 3145 3145 3146 3146 3146 3145 3145 3144 3144 3144 3144 3144 3144 3145 3148 3150 3149 3148 3150 3151 3151 3152 3153 3153 3153 3152 3153 3153 3154 3155 3155 3155 3155 3156 3158 3160 3161 3160 3161 3162 3164 3165 3167 3169 3171 3175 3177 3179 3180 3182 3184 3185 3187 3189 3191 3195 3197 3199 3201 3204 3206 3208 3209 3211 3213 3214 3215 3217 3218 3219 3221 3221 3222 3222 3222 3224 3225 3226
3147 3147 3147 3146 3145 3144 3144 3145 3145 3145 3145 3146 3146 3146 3146 3146 3145 3145 3144 3145 3146 3148 3149 3150 3150 3150 3150 3150 3151 3152 3153 3153 3153 3153 3153 3153 3153 3154 3154 3155 3155 3155 3157 3159 3158 3158 3159 3160 3161 3163 3164 3165 3167 3170 3174 3177 3178 3181 3183 3184 3185 3187 3190 3193 3195 3197 3200 3202 3204 3205 3205 3206 3208 3211 3212 3214 3215 3217 3218 3219 3220 3220 3221 3222 3223 3224
3147 3147 3147 3147 3146 3144 3144 3144 3144 3144 3145 3146 3147 3147 3147 3147 3146 3146 3146 3145 3146 3148 3149 3151 3152 3152 3152 3152 3152 3152 3153 3153 3154 3154 3154 3154 3153 3154 3155 3155 3155 3156 3157 3157 3156 3156 3157 3159 3160 3162 3164 3166 3167 3170 3173 3176 3177 3178 3179 3180 3182 3185 3188 3191 3193 3195 3198 3200 3202 3205 3206 3206 3207 3210 3211 3212 3213 3214 3216 3217 3218 3219 3219 3220 3221 3222
3147 3147 3147 3147 3145 3144 3144 3143 3143 3144 3145 3146 3147 3148 3149 3149 3148 3147 3148 3147 3147 3148 3149 3150 3152 3153 3153 3153 3153 3153 3154 3154 3155 3155 3155 3155 3154 3153 3154 3154 3155 3156 3157 3157 3157 3156 3156 3159 3161 3162 3164 3167 3170 3172 3175 3177 3177 3177 3177 3177 3179 3183 3186 3189 3191 3193 3195 3197 3200 3204 3206 3207 3209 3211 3211 3211 3211 3211 3213 3214 3216 3217 3217 3218 3218 3219
3148 3147 3147 3147 3146 3144 3144 3143 3143 3143 3145 3147 3148 3149 3150 3151 3150 3149 3149 3150 3150 3149 3149 3150 3151 3152 3153 3153 3153 3153 3154 3155 3155 3156 3156 3155 3153 3151 3151 3151 3153 3155 3156 3157 3157 3155 3156 3160 3161 3161 3162 3164 3166 3169 3172 3174 3175 3175 3176 3179 3180 3182 3184 3187 3189 3190 3192 3194 3198 3202 3204 3206 3208 3210 3210 3210 3210 3209 3210 3212 3213 3214 3215 3215 3216 3216
3147 3147 3147 3147 3146 3145 3144 3143 3143 3143 3145 3147 3149 3150 3150 3151 3151 3150 3150 3151 3150 3150 3150 3150 3151 3151 3151 3152 3152 3152 3153 3155 3155 3155 3154 3154 3152 3150 3150 3150 3152 3155 3155 3155 3156 3155 3155 3158 3160 3161 3162 3164 3166 3167 3169 3172 3173 3173 3174 3176 3177 3179 3181 3184 3186 3187 3189 3191 3194 3198 3201 3203 3205 3207 3207 3207 3207 3207 3207 3209 3210 3211 3212 3212 3213 3213
3147 3147 3147 3147 3146 3145 3144 3144 3144 3145 3146 3147 3149 3150 3151 3151 3151 3151 3151 3150 3150 3151 3150 3150 3150 3150 3150 3150 3151 3151 3152 3153 3154 3153 3151 3152 3152 3151 3150 3149 3151 3154 3155 3154 3155 3156 3156 3158 3161 3163 3164 3165 3167 3167 3168 3170 3172 3172 3172 3172 3173 3174 3177 3181 3185 3186 3188 3189 3190 3193 3196 3199 3201 3203 3203 3202 3203 3203 3203 3204 3206 3207 3208 3209 3210 3210
3146 3146 3146 3146 3146 3145 3145 3144 3146 3147 3147 3147 3148 3149 3150 3150 3151 3150 3149 3149 3149 3149 3149 3149 3149 3148 3148 3150 3151 3151 3151 3152 3153 3152 3150 3151 3153 3153 3152 3151 3153 3155 3157 3156 3156 3156 3157 3159 3162 3164 3163 3163 3164 3164 3165 3167 3168 3168 3169 3170 3170 3172 3175 3180 3183 3184 3185 3186 3187 3189 3191 3194 3196 3197 3198 3198 3199 3199 3199 3200 3201 3201 3203 3205 3206 3206
3146 3146 3146 3146 3145 3145 3145 3145 3146 3147 3148 3147 3147 3148 3149 3150 3151 3149 3148 3149 3149 3148 3148 3149 3149 3148 3149 3150 3151 3151 3151 3152 3153 3152 3150 3150 3152 3154 3154 3155 3155 3157 3158 3158 3158 3158 3158 3158 3159 3161 3161 3161 3161 3162 3162 3163 3164 3166 3167 3168 3169 3171 3174 3177 3179 3180 3181 3183 3184 3185 3187 3189 3191 3192 3193 3194 3195 3195 3195 3196 3196 3197 3198 3199 3200 3201
3145 3146 3146 3146 3145 3145 3145 3145 3145 3147 3148 3148 3148 3148 3149 3150 3150 3149 3149 3149 3149 3148 3148 3149 3149 3149 3150 3151 3152 3152 3152 3152 3152 3152 3150 3149 3150 3152 3154 3154 3155 3157 3158 3158 3159 3159 3159 3159 3158 3157 3158 3158 3158 3159 3160 3161 3163 3164 3165 3165 3167 3169 3172 3174 3175 3176 3178 3179 3179 3180 3182 3183 3185 3187 3189 3190 3190 3191 3191 3192 3192 3193 3193 3194 3195 3196
3145 3145 3145 3145 3145 3145 3145 3144 3145 3146 3147 3148 3149 3149 3148 3148 3149 3149 3149 3150 3149 3149 3149 3150 3150 3150 3151 3152 3153 3153 3152 3151 3151 3152 3151 3150 3151 3152 3152 3152 3154 3156 3158 3158 3158 3158 3159 3159 3158 3158 3158 3158 3158 3158 3159 3160 3161 3162 3162 3163 3164 3166 3169 3172 3173 3174 3175 3176 3176 3176 3177 3178 3179 3181 3183 3185 3186 3186 3187 3188 3188 3189 3189 3190 3190 3191
3145 3145 3145 3145 3144 3144 3144 3144 3144 3146 3147 3147 3147 3147 3147 3147 3148 3148 3149 3150 3150 3149 3149 3150 3151 3151 3151 3152 3153 3153 3152 3151 3151 3151 3152 3152 3152 3152 3152 3151 3153 3155 3156 3157 3157 3156 3157 3157 3157 3158 3159 3159 3158 3158 3159 3160 3161 3162 3163 3163 3164 3166 3168 3170 3172 3172 3173 3173 3174 3174 3175 3175 3175 3177 3179 3181 3182 3183 3184 3185 3186 3186 3186 3186 3187 3187
3145 3144 3145 3144 3144 3143 3143 3143 3145 3146 3146 3146 3146 3146 3146 3147 3147 3148 3149 3150 3149 3149 3150 3150 3150 3151 3151 3151 3152 3152 3152 3151 3151 3151 3152 3152 3153 3153 3152 3152 3152 3153 3154 3155 3155 3155 3155 3154 3155 3156 3157 3158 3158 3158 3158 3159 3160 3161 3161 3162 3163 3164 3166 3168 3169 3170 3171 3172 3172 3172 3172 3173 3174 3175 3176 3178 3178 3179 3181 3182 3182 3182 3183 3184 3184 3184
3144 3143 3143 3144 3143 3143 3143 3143 3145 3146 3146 3146 3146 3145 3145 3146 3147 3148 3149 3149 3149 3149 3150 3150 3150 3150 3150 3150 3150 3150 3150 3150 3150 3151 3151 3152 3152 3152 3152 3152 3151 3152 3152 3153 3154 3154 3154 3153 3152 3153 3154 3156 3157 3157 3157 3157 3158 3159 3159 3160 3161 3162 3163 3165 3166 3167 3168 3169 3169 3170 3170 3171 3172 3173 3173 3174 3174 3175 3176 3178 3178 3179 3180 3181 3181 3181
3144 3144 3143 3143 3143 3143 3143 3143 3145 3146 3146 3145 3145 3145 3145 3145 3147 3148 3148 3148 3149 3149 3149 3149 3149 3149 3149 3149 3149 3149 3149 3149 3149 3150 3150 3150 3151 3151 3151 3151 3150 3151 3151 3151 3152 3153 3153 3153 3153 3152 3152 3153 3154 3155 3155 3155 3156 3157 3158 3159 3159 3160 3161 3162 3163 3165 3165 3166 3167 3167 3168 3169 3170 3170 3170 3170 3171 3171 3173 3174 3175 3176 3177 3178 3178 3178
3143 3144 3143 3143 3143 3143 3143 3144 3145 3146 3145 3145 3145 3144 3145 3146 3147 3147 3147 3147 3148 3149 3149 3149 3149 3149 3149 3148 3148 3148 3148 3148 3149 3149 3149 3149 3150 3150 3150 3150 3150 3150 3150 3150 3151 3151 3152 3153 3153 3153 3152 3152 3153 3153 3154 3154 3155 3156 3157 3158 3158 3159 3159 3160 3161 3162 3163 3164 3165 3165 3166 3167 3167 3168 3168 3168 3168 3169 3170 3171 3172 3173 3173 3174 3175 3175
3143 3143 3143 3142 3142 3143 3143 3143 3145 3145 3145 3145 3144 3144 3145 3145 3146 3146 3146 3146 3148 3148 3148 3148 3148 3148 3148 3148 3148 3148 3148 3148 3148 3148 3148 3149 3149 3149 3149 3149 3149 3149 3149 3149 3149 3150 3151 3152 3152 3152 3152 3152 3152 3152 3153 3154 3155 3156 3157 3157 3158 3158 3158 3159 3159 3160 3161 3163 3163 3163 3164 3164 3165 3165 3165 3166 3167 3167 3167 3168 3169 3170 3171 3171 3172 3172
3142 3143 3143 3142 3142 3143 3143 3144 3144 3144 3144 3144 3144 3144 3144 3144 3145 3145 3145 3145 3146 3147 3147 3147 3147 3147 3147 3147 3148 3148 3148 3147 3147 3147 3147 3148 3148 3148 3148 3148 3148 3149 3149 3148 3148 3149 3150 3150 3151 3151 3151 3151 3152 3152 3152 3153 3154 3155 3156 3157 3157 3157 3158 3158 3158 3158 3159 3160 3160 3161 3161 3162 3162 3162 3163 3163 3164 3166 3166 3167 3167 3168 3168 3168 3169 3170
3141 3142 3143 3143 3142 3143 3143 3144 3144 3144 3144 3144 3144 3144 3144 3144 3144 3144 3144 3145 3145 3146 3146 3146 3146 3146 3147 3147 3147 3147 3147 3147 3147 3147 3146 3147 3147 3147 3147 3147 3148 3148 3148 3148 3148 3149 3149 3150 3150 3150 3149 3150 3150 3151 3152 3153 3154 3155 3156 3156 3157 3157 3157 3157 3157 3157 3157 3158 3158 3158 3158 3159 3160 3160 3161 3161 3162 3163 3164 3165 3166 3166 3165 3165 3166 3168
3140 3141 3142 3142 3142 3142 3143 3143 3143 3142 3143 3144 3144 3143 3143 3144 3144 3143 3143 3143 3144 3145 3145 3145 3145 3145 3146 3146 3146 3146 3147 3147 3147 3146 3146 3146 3146 3146 3147 3147 3147 3148 3148 3148 3148 3148 3149 3149 3149 3149 3149 3149 3149 3150 3151 3152 3154 3155 3155 3156 3156 3156 3156 3156 3156 3156 3157 3157 3156 3156 3156 3156 3157 3159 3159 3160 3160 3161 3161 3162 3164 3164 3164 3164 3164 3166
3140 3140 3140 3140 3141 3141 3142 3142 3142 3142 3142 3143 3143 3143 3143 3143 3143 3143 3142 3142 3143 3144 3144 3144 3144 3144 3145 3145 3146 3146 3146 3146 3146 3146 3146 3146 3146 3146 3146 3146 3147 3147 3148 3148 3148 3148 3148 3148 3148 3148 3149 3149 3149 3150 3151 3151 3152 3153 3154 3154 3155 3155 3155 3155 3155 3155 3155 3155 3155 3155 3155 3154 3155 3156 3158 3159 3159 3159 3159 3160 3162 3163 3164 3164 3163 3163
3138 3139 3139 3139 3140 3140 3141 3141 3141 3141 3141 3142 3142 3142 3142 3142 3142 3142 3142 3141 3142 3142 3143 3143 3143 3143 3143 3144 3144 3144 3145 3145 3145 3145 3146 3146 3146 3146 3146 3146 3146 3147 3147 3148 3148 3148 3148 3148 3148 3149 3149 3150 3150 3150 3151 3151 3151 3152 3152 3153 3153 3154 3154 3154 3154 3154 3154 3154 3154 3154 3154 3153 3153 3154 3156 3157 3157 3157 3157 3158 3159 3160 3162 3163 3163 3161
3137 3138 3138 3138 3138 3139 3140 3140 3140 3140 3140 3140 3141 3141 3141 3141 3141 3141 3141 3141 3141 3141 3141 3142 3142 3142 3142 3142 3142 3143 3143 3143 3144 3144 3144 3145 3145 3145 3145 3146 3146 3147 3147 3147 3148 3148 3148 3148 3148 3149 3150 3150 3150 3151 3151 3151 3151 3151 3151 3151 3152 3152 3153 3153 3153 3153 3153 3153 3153 3152 3152 3152 3153 3153 3154 3155 3156 3156 3156 3157 3157 3158 3160 3161 3161 3161